SAS005 ESPA-ESSA

Flight info

Callsign SAS005
Flight time 1h 8m
Altitude 34000
Route VERAG DCT KETEL DCT BODRI DCT SIPRI N5 VACRA
Aircraft A320/M-SDE3FGHIRWY/LB1

Departure

Time 2026-04-15 07:38
Airport Luleå Airport (ESPA)

Arrival

Time 2026-04-15 08:46
Airport Stockholm-Arlanda Airport (ESSA)
Time Latitude Longitude Altitude Speed Heading
2026-04-15 07:06 65.54911 22.12176 58 ft 0 kts 47°
2026-04-15 07:30 65.54909 22.12172 58 ft 3 kts 47°
2026-04-15 07:30 65.54892 22.12124 52 ft 4 kts 54°
2026-04-15 07:31 65.54878 22.12069 50 ft 4 kts 72°
2026-04-15 07:31 65.54876 22.12013 50 ft 3 kts 131°
2026-04-15 07:31 65.54879 22.12006 51 ft 0 kts 137°
2026-04-15 07:34 65.54878 22.12007 51 ft 0 kts 137°
2026-04-15 07:34 65.54873 22.12020 50 ft 3 kts 137°
2026-04-15 07:34 65.54844 22.12085 55 ft 8 kts 137°
2026-04-15 07:34 65.54790 22.12167 55 ft 11 kts 181°
2026-04-15 07:35 65.54720 22.12069 50 ft 12 kts 178°
2026-04-15 07:35 65.54650 22.12218 53 ft 16 kts 137°
2026-04-15 07:35 65.54527 22.12495 52 ft 21 kts 136°
2026-04-15 07:35 65.54451 22.12668 51 ft 23 kts 136°
2026-04-15 07:36 65.54321 22.12953 48 ft 27 kts 138°
2026-04-15 07:36 65.54174 22.13281 44 ft 30 kts 137°
2026-04-15 07:36 65.54010 22.13640 42 ft 33 kts 136°
2026-04-15 07:36 65.53871 22.13953 40 ft 21 kts 137°
2026-04-15 07:37 65.53763 22.14136 38 ft 20 kts 160°
2026-04-15 07:37 65.53634 22.14078 36 ft 18 kts 219°
2026-04-15 07:37 65.53624 22.13883 36 ft 12 kts 316°
2026-04-15 07:37 65.53708 22.13694 38 ft 33 kts 317°
2026-04-15 07:38 65.54054 22.12923 43 ft 99 kts 317°
2026-04-15 07:38 65.54693 22.11504 57 ft 148 kts 317°
2026-04-15 07:38 65.55502 22.09744 433 ft 158 kts 319°
2026-04-15 07:38 65.56345 22.07979 1047 ft 163 kts 321°
2026-04-15 07:39 65.57149 22.06020 1637 ft 167 kts 298°
2026-04-15 07:39 65.57349 22.03201 2005 ft 183 kts 253°
2026-04-15 07:39 65.56621 22.00604 2274 ft 200 kts 211°
2026-04-15 07:39 65.55232 21.99711 2566 ft 222 kts 182°
2026-04-15 07:40 65.53600 21.99625 3026 ft 244 kts 180°
2026-04-15 07:40 65.51874 21.99626 3905 ft 251 kts 179°
2026-04-15 07:40 65.50117 21.99636 4871 ft 254 kts 179°
2026-04-15 07:40 65.48343 21.99633 5815 ft 256 kts 179°
2026-04-15 07:41 65.46577 21.99614 6747 ft 258 kts 179°
2026-04-15 07:41 65.44776 21.99578 7660 ft 260 kts 179°
2026-04-15 07:41 65.42933 21.99532 8557 ft 263 kts 180°
2026-04-15 07:41 65.41115 21.99483 9413 ft 266 kts 180°
2026-04-15 07:42 65.39259 21.99434 10280 ft 268 kts 180°
2026-04-15 07:42 65.37360 21.99385 10809 ft 283 kts 180°
2026-04-15 07:42 65.35310 21.99331 11030 ft 306 kts 180°
2026-04-15 07:42 65.33117 21.99269 11369 ft 321 kts 181°
2026-04-15 07:43 65.30862 21.99205 12004 ft 327 kts 181°
2026-04-15 07:43 65.28568 21.99140 12698 ft 331 kts 181°
2026-04-15 07:43 65.26255 21.99080 13397 ft 335 kts 181°
2026-04-15 07:43 65.23911 21.99023 14084 ft 339 kts 181°
2026-04-15 07:44 65.21542 21.98962 14700 ft 342 kts 181°
2026-04-15 07:44 65.19149 21.98898 15306 ft 346 kts 181°
2026-04-15 07:44 65.16736 21.98830 15900 ft 349 kts 181°
2026-04-15 07:44 65.14292 21.98730 16486 ft 352 kts 184°
2026-04-15 07:45 65.11860 21.97892 17070 ft 355 kts 194°
2026-04-15 07:45 65.09500 21.96047 17661 ft 359 kts 200°
2026-04-15 07:45 65.07179 21.93990 18261 ft 362 kts 200°
2026-04-15 07:45 65.04807 21.91887 18859 ft 366 kts 200°
2026-04-15 07:46 65.02410 21.89772 19408 ft 369 kts 200°
2026-04-15 07:46 64.99993 21.87655 19990 ft 372 kts 200°
2026-04-15 07:46 64.97555 21.85527 20564 ft 375 kts 200°
2026-04-15 07:46 64.95096 21.83377 21144 ft 378 kts 200°
2026-04-15 07:47 64.92618 21.81218 21684 ft 381 kts 200°
2026-04-15 07:47 64.90117 21.79043 22214 ft 384 kts 200°
2026-04-15 07:47 64.87829 21.77059 22678 ft 387 kts 200°
2026-04-15 07:47 64.85289 21.74867 23176 ft 390 kts 200°
2026-04-15 07:48 64.82730 21.72665 23671 ft 393 kts 200°
2026-04-15 07:48 64.80156 21.70446 24130 ft 396 kts 200°
2026-04-15 07:48 64.77560 21.68212 24518 ft 398 kts 200°
2026-04-15 07:48 64.74956 21.65973 24903 ft 401 kts 200°
2026-04-15 07:49 64.72321 21.63712 25273 ft 404 kts 200°
2026-04-15 07:49 64.69676 21.61446 25634 ft 407 kts 200°
2026-04-15 07:49 64.67005 21.59158 26001 ft 409 kts 200°
2026-04-15 07:49 64.64324 21.56867 26354 ft 412 kts 200°
2026-04-15 07:50 64.61657 21.54594 26702 ft 415 kts 200°
2026-04-15 07:50 64.58938 21.52282 27045 ft 418 kts 200°
2026-04-15 07:50 64.56193 21.49959 27389 ft 420 kts 200°
2026-04-15 07:50 64.53440 21.47640 27722 ft 423 kts 200°
2026-04-15 07:51 64.50656 21.45303 28060 ft 426 kts 200°
2026-04-15 07:51 64.47859 21.42955 28394 ft 429 kts 200°
2026-04-15 07:51 64.45038 21.40591 28739 ft 432 kts 200°
2026-04-15 07:51 64.42213 21.38226 29068 ft 435 kts 200°
2026-04-15 07:52 64.39355 21.35839 29382 ft 438 kts 200°
2026-04-15 07:52 64.36482 21.33444 29693 ft 440 kts 200°
2026-04-15 07:52 64.33593 21.31038 30116 ft 441 kts 200°
2026-04-15 07:52 64.30716 21.28648 30561 ft 440 kts 200°
2026-04-15 07:53 64.27829 21.26253 30932 ft 440 kts 200°
2026-04-15 07:53 64.24943 21.23863 31299 ft 441 kts 200°
2026-04-15 07:53 64.22058 21.21485 31666 ft 441 kts 200°
2026-04-15 07:53 64.19173 21.19117 32038 ft 441 kts 200°
2026-04-15 07:54 64.16285 21.16751 32414 ft 441 kts 200°
2026-04-15 07:54 64.13429 21.14412 32791 ft 441 kts 200°
2026-04-15 07:54 64.10550 21.12060 33180 ft 441 kts 200°
2026-04-15 07:54 64.07616 21.09669 33596 ft 440 kts 200°
2026-04-15 07:55 64.04764 21.07347 33897 ft 441 kts 200°
2026-04-15 07:55 64.01877 21.05000 34170 ft 440 kts 200°
2026-04-15 07:55 63.96096 21.00321 34437 ft 444 kts 200°
2026-04-15 07:56 63.93170 20.97962 34431 ft 446 kts 200°
2026-04-15 07:56 63.87307 20.93245 34432 ft 447 kts 200°
2026-04-15 07:57 63.81441 20.88550 34447 ft 447 kts 200°
2026-04-15 07:57 63.75573 20.83873 34434 ft 447 kts 200°
2026-04-15 07:58 63.69699 20.79228 34433 ft 448 kts 200°
2026-04-15 07:58 63.63811 20.74574 34452 ft 448 kts 200°
2026-04-15 07:59 63.57930 20.69941 34439 ft 448 kts 200°
2026-04-15 07:59 63.52040 20.65342 34444 ft 449 kts 200°
2026-04-15 08:00 63.46175 20.60774 34446 ft 449 kts 200°
2026-04-15 08:00 63.40273 20.56186 34446 ft 449 kts 200°
2026-04-15 08:01 63.34366 20.51629 34447 ft 449 kts 199°
2026-04-15 08:01 63.28456 20.47093 34455 ft 449 kts 199°
2026-04-15 08:02 63.22548 20.42563 34455 ft 449 kts 199°
2026-04-15 08:02 63.16638 20.38053 34451 ft 449 kts 199°
2026-04-15 08:03 63.10727 20.33572 34455 ft 449 kts 199°
2026-04-15 08:03 63.04816 20.29093 34454 ft 449 kts 200°
2026-04-15 08:04 62.98896 20.24630 34451 ft 449 kts 199°
2026-04-15 08:04 62.92981 20.20209 34450 ft 449 kts 199°
2026-04-15 08:05 62.87067 20.15808 34450 ft 449 kts 199°
2026-04-15 08:05 62.81187 20.11437 34453 ft 449 kts 200°
2026-04-15 08:06 62.75278 20.07058 34456 ft 449 kts 199°
2026-04-15 08:06 62.69364 20.02691 34455 ft 449 kts 199°
2026-04-15 08:07 62.63445 19.98349 34453 ft 449 kts 199°
2026-04-15 08:07 62.57527 19.94029 34453 ft 448 kts 199°
2026-04-15 08:08 62.51614 19.89734 34452 ft 448 kts 199°
2026-04-15 08:08 62.45694 19.85445 34451 ft 448 kts 199°
2026-04-15 08:09 62.39783 19.81180 34451 ft 448 kts 199°
2026-04-15 08:09 62.33870 19.76917 34450 ft 448 kts 199°
2026-04-15 08:10 62.27950 19.72685 34451 ft 448 kts 199°
2026-04-15 08:10 62.22032 19.68481 34452 ft 448 kts 199°
2026-04-15 08:11 62.16122 19.64287 34445 ft 448 kts 199°
2026-04-15 08:11 62.10251 19.60126 34449 ft 447 kts 199°
2026-04-15 08:12 62.04343 19.55954 34448 ft 447 kts 199°
2026-04-15 08:12 61.98434 19.51814 34438 ft 447 kts 199°
2026-04-15 08:13 61.92522 19.47703 34439 ft 447 kts 199°
2026-04-15 08:13 61.86607 19.43599 34440 ft 447 kts 199°
2026-04-15 08:14 61.80699 19.39504 34440 ft 447 kts 199°
2026-04-15 08:14 61.74793 19.35426 34442 ft 447 kts 199°
2026-04-15 08:15 61.68925 19.31385 34435 ft 447 kts 199°
2026-04-15 08:15 61.63010 19.27346 34431 ft 447 kts 199°
2026-04-15 08:16 61.57102 19.23319 34432 ft 447 kts 199°
2026-04-15 08:16 61.51186 19.19296 34427 ft 447 kts 199°
2026-04-15 08:17 61.45279 19.15304 34429 ft 446 kts 199°
2026-04-15 08:17 61.39366 19.11327 34431 ft 446 kts 198°
2026-04-15 08:18 61.33450 19.07360 34425 ft 446 kts 198°
2026-04-15 08:18 61.27552 19.03427 34058 ft 442 kts 198°
2026-04-15 08:18 61.24636 19.01484 33520 ft 438 kts 198°
2026-04-15 08:19 61.21749 18.99561 32997 ft 434 kts 198°
2026-04-15 08:19 61.18881 18.97650 32492 ft 430 kts 198°
2026-04-15 08:19 61.16043 18.95766 31998 ft 426 kts 198°
2026-04-15 08:19 61.13269 18.93933 31511 ft 423 kts 198°
2026-04-15 08:20 61.10478 18.92095 30940 ft 421 kts 198°
2026-04-15 08:20 61.07691 18.90264 30339 ft 420 kts 198°
2026-04-15 08:20 61.04909 18.88444 29737 ft 417 kts 198°
2026-04-15 08:20 61.02152 18.86643 29185 ft 414 kts 198°
2026-04-15 08:21 60.99422 18.84861 28659 ft 410 kts 198°
2026-04-15 08:21 60.96717 18.83093 28128 ft 406 kts 198°
2026-04-15 08:21 60.94034 18.81338 27618 ft 403 kts 198°
2026-04-15 08:21 60.91368 18.79597 27123 ft 400 kts 198°
2026-04-15 08:22 60.88725 18.77880 26647 ft 397 kts 198°
2026-04-15 08:22 60.86097 18.76171 26183 ft 394 kts 198°
2026-04-15 08:22 60.83486 18.74474 25743 ft 392 kts 198°
2026-04-15 08:22 60.80898 18.72799 25367 ft 388 kts 198°
2026-04-15 08:23 60.78335 18.71150 24987 ft 385 kts 198°
2026-04-15 08:23 60.75787 18.69508 24570 ft 384 kts 198°
2026-04-15 08:23 60.73249 18.67874 24153 ft 382 kts 198°
2026-04-15 08:23 60.70713 18.66244 23698 ft 381 kts 198°
2026-04-15 08:24 60.68196 18.64627 23248 ft 378 kts 197°
2026-04-15 08:24 60.65704 18.63031 22815 ft 374 kts 197°
2026-04-15 08:24 60.63229 18.61446 22390 ft 371 kts 197°
2026-04-15 08:24 60.60810 18.59900 21969 ft 367 kts 197°
2026-04-15 08:25 60.58382 18.58358 21532 ft 364 kts 196°
2026-04-15 08:25 60.55976 18.56838 21087 ft 361 kts 196°
2026-04-15 08:25 60.53587 18.55328 20638 ft 358 kts 196°
2026-04-15 08:25 60.51219 18.53824 20197 ft 355 kts 196°
2026-04-15 08:26 60.48874 18.52331 19763 ft 352 kts 195°
2026-04-15 08:26 60.46550 18.50857 19340 ft 349 kts 195°
2026-04-15 08:26 60.44232 18.49393 18807 ft 349 kts 195°
2026-04-15 08:26 60.41926 18.47938 18293 ft 347 kts 195°
2026-04-15 08:27 60.39630 18.46487 17784 ft 344 kts 195°
2026-04-15 08:27 60.37356 18.45056 17280 ft 341 kts 194°
2026-04-15 08:27 60.35095 18.43639 16798 ft 339 kts 194°
2026-04-15 08:27 60.32853 18.42238 16306 ft 337 kts 194°
2026-04-15 08:28 60.30622 18.40844 15836 ft 334 kts 194°
2026-04-15 08:28 60.28399 18.39532 15362 ft 331 kts 189°
2026-04-15 08:28 60.26135 18.38995 14912 ft 326 kts 179°
2026-04-15 08:28 60.23877 18.38817 14446 ft 324 kts 179°
2026-04-15 08:29 60.21635 18.38634 13990 ft 322 kts 179°
2026-04-15 08:29 60.19408 18.38450 13645 ft 320 kts 179°
2026-04-15 08:29 60.17194 18.38266 13294 ft 315 kts 180°
2026-04-15 08:29 60.15024 18.38082 12987 ft 309 kts 180°
2026-04-15 08:30 60.12925 18.37899 12690 ft 303 kts 180°
2026-04-15 08:30 60.10837 18.37717 12398 ft 298 kts 180°
2026-04-15 08:30 60.08784 18.37539 12103 ft 293 kts 180°
2026-04-15 08:30 60.06768 18.37375 11804 ft 288 kts 180°
2026-04-15 08:31 60.05421 18.37267 11623 ft 285 kts 180°
2026-04-15 08:31 60.02818 18.37059 11248 ft 280 kts 180°
2026-04-15 08:31 60.00891 18.36904 10968 ft 277 kts 180°
2026-04-15 08:31 59.99615 18.36802 10786 ft 275 kts 180°
2026-04-15 08:32 59.97791 18.36656 10516 ft 273 kts 180°
2026-04-15 08:32 59.95895 18.36499 10249 ft 272 kts 180°
2026-04-15 08:32 59.94001 18.36342 9947 ft 271 kts 180°
2026-04-15 08:32 59.92122 18.36189 9642 ft 270 kts 180°
2026-04-15 08:33 59.90245 18.36036 9343 ft 270 kts 180°
2026-04-15 08:33 59.88371 18.35882 9057 ft 269 kts 180°
2026-04-15 08:33 59.86505 18.35725 8829 ft 269 kts 180°
2026-04-15 08:33 59.84638 18.35570 8616 ft 268 kts 180°
2026-04-15 08:34 59.82777 18.35415 8400 ft 267 kts 180°
2026-04-15 08:34 59.80922 18.35262 8223 ft 267 kts 179°
2026-04-15 08:34 59.79064 18.35114 8094 ft 267 kts 179°
2026-04-15 08:34 59.77235 18.34972 7959 ft 266 kts 179°
2026-04-15 08:35 59.75385 18.34801 7833 ft 267 kts 183°
2026-04-15 08:35 59.73558 18.33975 7706 ft 265 kts 195°
2026-04-15 08:35 59.71871 18.32827 7572 ft 256 kts 195°
2026-04-15 08:35 59.70212 18.31703 7443 ft 248 kts 195°
2026-04-15 08:36 59.68604 18.30619 7314 ft 241 kts 194°
2026-04-15 08:36 59.67034 18.29566 7193 ft 237 kts 194°
2026-04-15 08:36 59.65474 18.28528 7063 ft 236 kts 194°
2026-04-15 08:36 59.63921 18.27497 6938 ft 236 kts 194°
2026-04-15 08:37 59.62362 18.26458 6812 ft 236 kts 194°
2026-04-15 08:37 59.60809 18.25418 6681 ft 236 kts 194°
2026-04-15 08:37 59.59260 18.24380 6548 ft 235 kts 194°
2026-04-15 08:37 59.57712 18.23342 6417 ft 235 kts 194°
2026-04-15 08:38 59.56166 18.22298 6287 ft 235 kts 194°
2026-04-15 08:38 59.54626 18.21253 6155 ft 234 kts 194°
2026-04-15 08:38 59.53090 18.20209 6023 ft 233 kts 194°
2026-04-15 08:38 59.51564 18.19174 5883 ft 233 kts 194°
2026-04-15 08:39 59.50029 18.18129 5761 ft 233 kts 194°
2026-04-15 08:39 59.48503 18.17093 5632 ft 232 kts 194°
2026-04-15 08:39 59.46996 18.16071 5505 ft 232 kts 194°
2026-04-15 08:39 59.45475 18.15036 5379 ft 231 kts 194°
2026-04-15 08:40 59.43960 18.13995 5252 ft 230 kts 194°
2026-04-15 08:40 59.42550 18.12461 5125 ft 238 kts 220°
2026-04-15 08:40 59.41703 18.09643 4991 ft 245 kts 253°
2026-04-15 08:40 59.41687 18.06337 4860 ft 243 kts 279°
2026-04-15 08:41 59.42050 18.03132 4743 ft 238 kts 283°
2026-04-15 08:41 59.42459 17.99997 4609 ft 236 kts 284°
2026-04-15 08:41 59.42878 17.96852 4493 ft 241 kts 284°
2026-04-15 08:41 59.43310 17.93623 4361 ft 248 kts 288°
2026-04-15 08:42 59.44069 17.90541 3991 ft 257 kts 307°
2026-04-15 08:42 59.45305 17.88086 3726 ft 245 kts 328°
2026-04-15 08:42 59.46731 17.86623 3529 ft 226 kts 346°
2026-04-15 08:42 59.48238 17.86040 3274 ft 211 kts
2026-04-15 08:43 59.49618 17.86249 3033 ft 196 kts 17°
2026-04-15 08:43 59.50918 17.86712 2753 ft 185 kts 17°
2026-04-15 08:43 59.52161 17.87155 2496 ft 177 kts 18°
2026-04-15 08:43 59.53345 17.87580 2261 ft 171 kts 18°
2026-04-15 08:44 59.54507 17.88000 2037 ft 169 kts 18°
2026-04-15 08:44 59.55657 17.88414 1799 ft 167 kts 17°
2026-04-15 08:44 59.56793 17.88822 1590 ft 168 kts 17°
2026-04-15 08:44 59.57938 17.89235 1337 ft 162 kts 16°
2026-04-15 08:45 59.58990 17.89609 1117 ft 147 kts 17°
2026-04-15 08:45 59.59973 17.89963 914 ft 141 kts 16°
2026-04-15 08:45 59.60923 17.90313 699 ft 137 kts 15°
2026-04-15 08:45 59.61854 17.90647 530 ft 136 kts 14°
2026-04-15 08:46 59.62787 17.90974 349 ft 136 kts 15°
2026-04-15 08:46 59.63699 17.91303 164 ft 135 kts 15°
2026-04-15 08:46 59.64565 17.91632 111 ft 109 kts 10°
2026-04-15 08:46 59.65108 17.91831 104 ft 38 kts 15°
2026-04-15 08:47 59.65276 17.92059 103 ft 20 kts 42°
2026-04-15 08:47 59.65352 17.92200 103 ft 16 kts 44°
2026-04-15 08:47 59.65430 17.92351 105 ft 11 kts 41°
2026-04-15 08:47 59.65486 17.92450 105 ft 8 kts 45°
2026-04-15 08:48 59.65493 17.92553 106 ft 8 kts 123°
2026-04-15 08:48 59.65451 17.92610 109 ft 7 kts 149°
2026-04-15 08:48 59.65411 17.92653 111 ft 7 kts 152°
2026-04-15 08:48 59.65368 17.92697 112 ft 4 kts 152°
2026-04-15 08:49 59.65347 17.92756 112 ft 7 kts 109°
2026-04-15 08:49 59.65339 17.92838 112 ft 4 kts 100°
2026-04-15 08:49 59.65333 17.92895 112 ft 1 kts 101°
2026-04-15 08:49 59.65333 17.92900 112 ft 0 kts 101°